Terminal Aerodrome Forecast
Issued by NWS San Angelo, TX

Home | Current Version | Previous Version | Text Only | Print | Product List | Glossary On
Versions: 1 2 3 4 5 6 7 8 9 10 11 12 13 14 15 16 17 18 19 20
000
FTUS44 KSJT 271600 AAB
TAFSJT
TAF AMD
KSJT 271626Z 2716/2812 03011G17KT P6SM OVC014
     FM271900 03011G17KT P6SM SCT025 OVC050
     FM280100 01008KT P6SM BKN080=

USA.gov is the U.S. government's official web portal to all federal, state and local government web resources and services.